Location: ?????
(37.7324°N, 23.9257°E)
Time: 07:16:09
(UTC+00:00)

Cosmos 1500 Rocket - Pass Details

Date: 29 November 2020
Orbit: 604 x 631 km, 82.5° (Epoch: 17 January)

Event Time Altitude Azimuth Distance (km) Brightness Sun altitude
Rises 04:28:09 0° 208° (SSW) 2,842 6.9 -10.1°
Reaches altitude 10° 04:30:31 10° 218° (SW) 1,943 5.9 -9.6°
Maximum altitude 04:34:23 32° 282° (WNW) 1,038 4.2 -8.9°
Drops below altitude 10° 04:38:18 10° 347° (NNW) 1,961 5.8 -8.2°
Sets 04:40:43 0° 357° (N) 2,872 6.7 -7.8°
